This is the latest recevied weather packets stored in our database for station/object DL1GHN-6. If no packets are shown the sender has not sent any weather packets the latest 10 day(s).
| Time | Temp. | Humidity | Pressure | Rain* | Wind** | Luminosity | Snow |
|---|---|---|---|---|---|---|---|
| 1777302911 | 22.78° C | 39% | 1017.8 hPa | 0 mm | - | 383 W/m² | - |
| 1777302611 | 22.22° C | 40% | 1017.8 hPa | 0 mm | - | 397 W/m² | - |
| 1777302310 | 22.78° C | 39% | 1017.8 hPa | 0 mm | - | 399 W/m² | - |
| 1777302011 | 22.78° C | 42% | 1017.9 hPa | 0 mm | - | 420 W/m² | - |
| 1777301709 | 22.78° C | 37% | 1017.9 hPa | 0 mm | - | 506 W/m² | - |
| 1777301410 | 22.78° C | 38% | 1017.9 hPa | 0 mm | - | 497 W/m² | - |
| 1777301110 | 22.78° C | 42% | 1018 hPa | 0 mm | - | 468 W/m² | - |
| 1777300810 | 22.78° C | 38% | 1018.1 hPa | 0 mm | - | 499 W/m² | - |
| 1777300510 | 23.33° C | 39% | 1018.1 hPa | 0 mm | - | 497 W/m² | - |
| 1777300210 | 23.33° C | 42% | 1018.2 hPa | 0 mm | - | 524 W/m² | - |
| 1777299911 | 23.33° C | 39% | 1018.3 hPa | 0 mm | - | 529 W/m² | - |
| 1777299610 | 23.33° C | 40% | 1018.3 hPa | 0 mm | - | 578 W/m² | - |
| 1777299311 | 22.78° C | 38% | 1018.4 hPa | 0 mm | - | 613 W/m² | - |
| 1777299011 | 22.78° C | 42% | 1018.5 hPa | 0 mm | - | 517 W/m² | - |
| 1777298710 | 23.33° C | 39% | 1018.6 hPa | 0 mm | - | 577 W/m² | - |
| 1777298410 | 23.33° C | 38% | 1018.5 hPa | 0 mm | - | 612 W/m² | - |
| 1777298110 | 23.33° C | 41% | 1018.6 hPa | 0 mm | - | 624 W/m² | - |
| 1777297810 | 22.78° C | 42% | 1018.7 hPa | 0 mm | - | 584 W/m² | - |
| 1777297511 | 22.78° C | 42% | 1018.7 hPa | 0 mm | - | 589 W/m² | - |
| 1777297209 | 22.78° C | 40% | 1018.8 hPa | 0 mm | - | 557 W/m² | - |
| 1777296910 | 22.78° C | 42% | 1018.9 hPa | 0 mm | - | 673 W/m² | - |
| 1777296610 | 22.78° C | 42% | 1018.8 hPa | 0 mm | - | 612 W/m² | - |
| 1777296309 | 22.78° C | 41% | 1018.9 hPa | 0 mm | - | 580 W/m² | - |
| 1777296009 | 22.22° C | 38% | 1018.9 hPa | 0 mm | - | 601 W/m² | - |
| 1777295709 | 22.22° C | 36% | 1019 hPa | 0 mm | - | 585 W/m² | - |
* Rain latest hour (hover to see other rain measurements)
** Current wind speed in m/s (hover to see current wind gust speed)